This is the latest recevied weather packets stored in our database for station/object DM3DP. If no packets are shown the sender has not sent any weather packets the latest 1 day(s).
| Time | Temp. | Humidity | Pressure | Rain* | Wind** | Luminosity | Snow |
|---|---|---|---|---|---|---|---|
| 1777978761 | 16.11° C | 99% | 1007 hPa | 0 mm | 0 m/s | 109 W/m² | - |
| 1777978431 | 16.11° C | 99% | 1007 hPa | 0 mm | 0 m/s | 123 W/m² | - |
| 1777978101 | 16.11° C | 99% | 1007 hPa | 0 mm | 0.45 m/s, 305° | 127 W/m² | - |
| 1777977772 | 16.11° C | 99% | 1007 hPa | 0 mm | 0.45 m/s, 272° | 120 W/m² | - |
| 1777977441 | 16.11° C | 99% | 1007 hPa | 0 mm | 0 m/s | 115 W/m² | - |
| 1777977111 | 16.11° C | 99% | 1007 hPa | 0 mm | 0.45 m/s, 310° | 106 W/m² | - |
| 1777976781 | 16.11° C | 99% | 1007 hPa | 0 mm | 0.89 m/s, 314° | 104 W/m² | - |
| 1777976451 | 16.11° C | 99% | 1007 hPa | 0 mm | 0 m/s | 109 W/m² | - |
| 1777976121 | 16.11° C | 99% | 1007.1 hPa | 0 mm | 0.45 m/s, 171° | 131 W/m² | - |
| 1777975791 | 16.11° C | 99% | 1007.2 hPa | 0 mm | 0.89 m/s, 315° | 135 W/m² | - |
| 1777975462 | 16.11° C | 99% | 1007.2 hPa | 0 mm | 0.45 m/s, 278° | 136 W/m² | - |
| 1777975131 | 16.11° C | 99% | 1007.2 hPa | 0 mm | 0.45 m/s, 205° | 135 W/m² | - |
| 1777974802 | 16.11° C | 99% | 1007.2 hPa | 0 mm | 0.89 m/s, 171° | 128 W/m² | - |
| 1777974472 | 16.11° C | 99% | 1007.3 hPa | 0 mm | 0.45 m/s, 187° | 137 W/m² | - |
| 1777974142 | 15.56° C | 99% | 1007.3 hPa | 0 mm | 0.45 m/s, 182° | 169 W/m² | - |
| 1777973811 | 15.56° C | 99% | 1007.3 hPa | 0 mm | 0.45 m/s, 197° | 188 W/m² | - |
| 1777973481 | 15.56° C | 99% | 1007.4 hPa | 0 mm | 0.89 m/s, 301° | 127 W/m² | - |
| 1777973151 | 15.56° C | 99% | 1007.4 hPa | 0 mm | 0.89 m/s, 231° | 88 W/m² | - |
| 1777972822 | 15° C | 99% | 1007.5 hPa | 0 mm | 0.45 m/s, 336° | 118 W/m² | - |
| 1777972492 | 15° C | 99% | 1007.5 hPa | 0 mm | 0 m/s | 111 W/m² | - |
| 1777972162 | 15° C | 99% | 1007.5 hPa | 0 mm | 0 m/s | 95 W/m² | - |
| 1777971831 | 15° C | 99% | 1007.5 hPa | 0 mm | 1.34 m/s, 334° | 103 W/m² | - |
| 1777971501 | 15° C | 99% | 1007.5 hPa | 0 mm | 0.45 m/s, 334° | 107 W/m² | - |
| 1777971171 | 15° C | 99% | 1007.5 hPa | 0 mm | 0 m/s | 94 W/m² | - |
| 1777970841 | 15° C | 99% | 1007.5 hPa | 0 mm | 0 m/s | 77 W/m² | - |
* Rain latest hour (hover to see other rain measurements)
** Current wind speed in m/s (hover to see current wind gust speed)